Time,TemperatureF,DewpointF,PressureIn,WindDirection,WindDirectionDegrees,WindSpeedMPH,WindSpeedGustMPH,Humidity,HourlyPrecipIn,Conditions,Clouds,dailyrainin,SolarRadiationWatts/m^2,SoftwareType,DateUTC
2013-09-14 01:00:00,42.0,42.0,21.04,SW,236,1.0,3.0,100,-99.99,,,0.00,0.000000,,2013-09-14 08:00:00,
2013-09-14 01:52:00,42.0,42.0,21.04,SW,236,1.0,3.0,100,-99.99,,,0.00,0.000000,,2013-09-14 08:52:00,
2013-09-14 03:00:00,42.0,42.0,21.02,SW,229,1.0,2.0,100,-99.99,,,0.00,0.000000,,2013-09-14 10:00:00,
2013-09-14 03:53:00,42.0,42.0,21.02,SW,229,1.0,2.0,100,-99.99,,,0.00,0.000000,,2013-09-14 10:53:00,
2013-09-14 04:00:00,45.0,45.0,21.02,WSW,239,1.0,2.0,100,-99.99,,,0.00,0.000000,,2013-09-14 11:00:00,
2013-09-14 04:52:00,45.0,45.0,21.02,WSW,239,1.0,2.0,100,-99.99,,,0.00,0.000000,,2013-09-14 11:52:00,
2013-09-14 05:00:00,45.0,45.0,21.02,WSW,239,2.0,3.0,100,-99.99,,,0.00,0.000000,,2013-09-14 12:00:00,
2013-09-14 05:52:00,45.0,45.0,21.02,WSW,239,2.0,3.0,100,-99.99,,,0.00,0.000000,,2013-09-14 12:52:00,
2013-09-14 07:00:00,49.0,49.0,21.02,WSW,254,2.0,7.0,100,-99.99,,,0.00,7.900000,,2013-09-14 14:00:00,
2013-09-14 07:52:00,49.0,49.0,21.02,WSW,254,2.0,7.0,100,-99.99,,,0.00,7.900000,,2013-09-14 14:52:00,
2013-09-14 09:00:00,52.0,52.0,21.04,NW,318,2.0,8.0,100,-99.99,,,0.00,260.399994,,2013-09-14 16:00:00,
2013-09-14 09:54:00,52.0,52.0,21.04,NW,318,2.0,8.0,100,-99.99,,,0.00,260.399994,,2013-09-14 16:54:00,
2013-09-14 10:00:00,55.0,55.0,21.04,NNE,24,2.0,9.0,100,-99.99,,,0.00,305.899994,,2013-09-14 17:00:00,
2013-09-14 10:54:00,55.0,55.0,21.04,NNE,24,2.0,9.0,100,-99.99,,,0.00,305.899994,,2013-09-14 17:54:00,
2013-09-14 11:00:00,54.0,54.0,21.06,NW,325,2.0,7.0,100,-99.99,,,0.00,551.900024,,2013-09-14 18:00:00,
2013-09-14 11:52:00,54.0,54.0,21.06,NW,325,2.0,7.0,100,-99.99,,,0.00,551.900024,,2013-09-14 18:52:00,
2013-09-14 14:00:00,56.0,56.0,21.02,NNE,26,2.0,6.0,100,-99.99,,,-99.99,657.799988,,2013-09-14 21:00:00,
2013-09-14 14:54:00,56.0,56.0,21.02,NNE,26,2.0,6.0,100,-99.99,,,-99.99,657.799988,,2013-09-14 21:54:00,
2013-09-14 15:00:00,54.0,54.0,21.00,East,96,1.0,7.0,100,-99.99,,,0.00,139.800003,,2013-09-14 22:00:00,
2013-09-14 15:53:00,54.0,54.0,21.00,East,96,1.0,7.0,100,-99.99,,,0.00,139.800003,,2013-09-14 22:53:00,
2013-09-14 16:00:00,50.0,50.0,21.01,West,263,1.0,4.0,100,-99.99,,,0.00,108.699997,,2013-09-14 23:00:00,
2013-09-14 16:53:00,50.0,50.0,21.01,West,263,1.0,4.0,100,-99.99,,,0.00,108.699997,,2013-09-14 23:53:00,
2013-09-14 19:00:00,49.0,49.0,21.05,WSW,243,1.0,5.0,100,-99.99,,,0.00,7.300000,,2013-09-15 02:00:00,
2013-09-14 19:52:00,49.0,49.0,21.05,WSW,243,1.0,5.0,100,-99.99,,,0.00,7.300000,,2013-09-15 02:52:00,
2013-09-14 20:00:00,-999.0,-99.9,21.07,SW,234,1.0,4.0,-999,-99.99,,,-99.99,,,2013-09-15 03:00:00,